This is the latest recevied weather packets stored in our database for station/object WA6TJQ. If no packets are shown the sender has not sent any weather packets the latest 10 day(s).
| Time | Temp. | Humidity | Pressure | Rain* | Wind** | Luminosity | Snow |
|---|---|---|---|---|---|---|---|
| 1777836537 | 11.67° C | 65% | 1008.6 hPa | 0 mm | - | - | - |
| 1777836237 | 12.22° C | 64% | 1008.6 hPa | 0 mm | - | - | - |
| 1777835937 | 12.22° C | 63% | 1008.8 hPa | 0 mm | - | - | - |
| 1777835637 | 12.78° C | 61% | 1008.8 hPa | 0 mm | - | - | - |
| 1777835337 | 13.33° C | 58% | 1008.8 hPa | 0 mm | - | - | - |
| 1777835037 | 13.89° C | 56% | 1008.6 hPa | 0 mm | - | - | - |
| 1777834737 | 13.89° C | 57% | 1008.6 hPa | 0 mm | - | - | - |
| 1777834436 | 13.89° C | 58% | 1008.7 hPa | 0 mm | - | - | - |
| 1777834136 | 13.33° C | 58% | 1008.6 hPa | 0 mm | - | - | - |
| 1777833836 | 13.33° C | 59% | 1008.8 hPa | 0 mm | - | - | - |
| 1777833536 | 13.33° C | 57% | 1008.8 hPa | 0 mm | - | - | - |
| 1777833236 | 13.33° C | 57% | 1008.6 hPa | 0 mm | - | - | - |
| 1777832936 | 12.78° C | 59% | 1008.8 hPa | 0 mm | - | - | - |
| 1777832636 | 12.78° C | 58% | 1008.6 hPa | 0 mm | - | - | - |
| 1777832336 | 12.22° C | 56% | 1008.8 hPa | 0 mm | - | - | - |
| 1777832036 | 12.78° C | 59% | 1008.9 hPa | 0 mm | - | - | - |
| 1777831736 | 12.22° C | 58% | 1008.9 hPa | 0 mm | - | - | - |
| 1777831436 | 12.22° C | 56% | 1008.9 hPa | 0 mm | - | - | - |
| 1777831136 | 12.22° C | 55% | 1008.8 hPa | 0 mm | - | - | - |
| 1777830836 | 12.22° C | 58% | 1008.8 hPa | 0 mm | - | - | - |
| 1777830536 | 12.22° C | 57% | 1008.9 hPa | 0 mm | - | - | - |
| 1777830236 | 12.78° C | 56% | 1008.8 hPa | 0 mm | - | - | - |
| 1777829936 | 12.78° C | 51% | 1008.7 hPa | 0 mm | - | - | - |
| 1777829636 | 12.78° C | 52% | 1008.7 hPa | 0 mm | - | - | - |
| 1777829336 | 12.78° C | 50% | 1008.7 hPa | 0 mm | - | - | - |
* Rain latest hour (hover to see other rain measurements)
** Current wind speed in m/s (hover to see current wind gust speed)